1493877600.41,1050,13.56,73614.8,1.95,0.51,0.63,0,*45
1493877601.65,1051,13.56,73616.8,1.93,0.59,0.59,0,*43
1493877602.89,1052,13.56,73616.8,1.93,0.51,0.59,0,*48
1493877604.13,1053,13.56,73616.8,1.93,0.59,0.59,0,*41
1493877605.37,1054,13.63,73620.8,1.93,0.51,0.59,0,*4E
1493877606.61,1055,13.63,73616.0,1.93,0.51,0.59,0,*4F
1493877607.85,1056,13.56,73616.5,1.93,0.51,0.59,0,*4C
1493877609.09,1057,13.56,73618.0,1.93,0.51,0.59,0,*4D
1493877610.32,1058,13.56,73620.8,1.93,0.59,0.59,0,*4A
1493877611.56,1059,13.56,73620.8,1.93,0.51,0.51,0,*4B
1493877612.77,1060,13.56,73618.5,1.95,0.59,0.51,0,*4F
1493877614.01,1061,13.63,73622.8,1.93,0.51,0.59,0,*48
1493877615.25,1062,13.56,73618.5,1.93,0.51,0.51,0,*43
1493877616.49,1063,13.63,73626.5,1.93,0.51,0.51,0,*42
1493877617.71,1064,13.56,73622.5,1.91,0.47,0.55,0,*44
1493877618.92,1065,13.56,73626.3,1.91,0.47,0.55,0,*45
1493877620.16,1066,13.56,73622.8,1.93,0.59,0.51,0,*4F
1493877621.4,1067,13.56,73624.5,1.93,0.51,0.51,0,*46
1493877622.62,1068,13.56,73620.5,1.91,0.47,0.47,0,*4B
1493877623.86,1069,13.56,73616.8,1.89,0.47,0.55,0,*40
1493877625.07,1070,13.56,73616.5,1.91,0.47,0.55,0,*41
1493877626.29,1071,13.56,73618.5,1.91,0.47,0.47,0,*43
1493877627.51,1072,13.56,73614.8,1.91,0.47,0.55,0,*43
1493877628.73,1073,13.56,73622.0,1.91,0.55,0.55,0,*41
1493877629.94,1074,13.56,73622.8,1.91,0.47,0.55,0,*45
1493877631.16,1075,13.56,73624.3,1.91,0.47,0.47,0,*47
1493877632.38,1076,13.56,73608.8,1.91,0.47,0.47,0,*44
1493877633.59,1077,13.56,73610.8,1.91,0.47,0.55,0,*46
1493877634.81,1078,13.56,73610.3,1.91,0.47,0.47,0,*4A
1493877636.03,1079,13.56,73600.8,1.91,0.47,0.55,0,*48
1493877637.25,1080,13.56,73608.8,1.91,0.55,0.55,0,*4D
1493877638.46,1081,13.56,73606.8,1.91,0.47,0.47,0,*4C
1493877639.68,1082,13.56,73604.3,1.91,0.47,0.55,0,*4C
1493877640.9,1083,13.56,73612.0,1.91,0.47,0.47,0,*4E
1493877642.11,1084,13.56,73610.5,1.91,0.47,0.59,0,*46
1493877643.35,1085,13.56,73610.8,1.89,0.47,0.47,0,*41
1493877644.57,1086,13.56,73610.0,1.91,0.47,0.55,0,*48
1493877645.8,1087,13.56,73610.0,1.89,0.47,0.47,0,*43
1493877647.01,1088,13.56,73606.8,1.89,0.43,0.55,0,*4B
1493877648.19,1089,13.56,73610.8,1.91,0.43,0.55,0,*43
1493877649.43,1090,13.56,73608.8,1.89,0.55,0.47,0,*46
1493877650.67,1091,13.56,73612.0,1.89,0.47,0.47,0,*44
1493877651.89,1092,13.56,73614.0,1.91,0.55,0.55,0,*4E
1493877653.13,1093,13.56,73608.5,1.89,0.47,0.55,0,*45
1493877654.37,1094,13.56,73610.3,1.89,0.47,0.55,0,*42
1493877655.6,1095,13.56,73610.3,1.89,0.47,0.59,0,*4F
1493877656.82,1096,13.56,73612.0,1.91,0.47,0.59,0,*45
1493877658.06,1097,13.56,73618.0,1.89,0.55,0.55,0,*42
1493877659.3,1098,13.56,73614.3,1.89,0.47,0.55,0,*4E
1493877660.54,1099,13.56,73614.8,1.89,0.55,0.55,0,*4C
1493877661.76,1100,13.56,73612.3,1.91,0.47,0.55,0,*47
1493877662.98,1101,13.56,73616.5,1.91,0.55,0.55,0,*45
1493877664.21,1102,13.56,73608.8,1.89,0.47,0.55,0,*4C
1493877665.45,1103,13.56,73610.5,1.89,0.47,0.55,0,*4D
1493877666.69,1104,13.56,73614.0,1.89,0.55,0.55,0,*49
1493877667.91,1105,13.56,73614.3,1.91,0.55,0.55,0,*41
1493877669.15,1106,13.56,73608.0,1.89,0.55,0.55,0,*4B
1493877670.39,1107,13.56,73608.5,1.89,0.47,0.55,0,*49
1493877671.61,1108,13.56,73606.5,1.91,0.55,0.47,0,*4F
1493877672.85,1109,13.56,73610.5,1.89,0.55,0.55,0,*44
1493877674.07,1110,13.56,73610.5,1.91,0.55,0.55,0,*45
1493877675.31,1111,13.56,73612.3,1.89,0.47,0.55,0,*4E
1493877676.54,1112,13.56,73612.5,1.89,0.55,0.67,0,*4F
1493877677.76,1113,13.56,73614.3,1.91,0.55,0.59,0,*4A
1493877679.0,1114,13.56,73612.8,1.89,0.55,0.59,0,*44
1493877680.23,1115,13.56,73614.3,1.89,0.47,0.67,0,*4B
1493877681.47,1116,13.56,73618.8,1.89,0.55,0.59,0,*46
1493877682.7,1117,13.56,73618.5,1.89,0.59,0.67,0,*46
1493877683.93,1118,13.56,73614.0,1.89,0.55,0.67,0,*45
1493877685.15,1119,13.56,73618.3,1.91,0.59,0.59,0,*4C
1493877686.38,1120,13.56,73620.8,1.89,0.59,0.59,0,*4F
1493877687.61,1121,13.56,73618.8,1.89,0.67,0.59,0,*43
1493877688.84,1122,13.56,73616.8,1.89,0.59,0.67,0,*40
1493877690.05,1123,13.56,73620.0,1.91,0.59,0.59,0,*45
1493877691.28,1124,13.56,73622.0,1.89,0.59,0.79,0,*49
1493877692.49,1125,13.56,73620.8,1.91,0.59,0.67,0,*4E
1493877693.72,1126,13.56,73622.8,1.89,0.59,0.59,0,*49
1493877694.93,1127,13.56,73616.5,1.91,0.59,0.67,0,*4C
1493877696.16,1128,13.56,73618.8,1.93,0.63,0.71,0,*4F
1493877697.37,1129,13.56,73620.5,1.95,0.59,0.71,0,*41
1493877698.58,1130,13.56,73614.8,1.91,0.55,0.67,0,*46
1493877699.81,1131,13.56,73618.0,1.89,0.59,0.67,0,*42
1493877701.03,1132,13.56,73614.3,1.91,0.55,0.59,0,*49
1493877702.26,1133,13.56,73614.5,1.89,0.55,0.67,0,*4C
1493877703.5,1134,13.56,73616.5,1.89,0.59,0.59,0,*4A
1493877704.71,1135,13.56,73612.0,1.91,0.59,0.67,0,*4F
1493877705.91,1136,13.56,73614.5,1.91,0.59,0.67,0,*4C
1493877707.13,1137,13.56,73612.3,1.91,0.47,0.59,0,*4F
1493877708.34,1138,13.56,73614.0,1.91,0.55,0.67,0,*4E
1493877709.56,1139,13.56,73612.3,1.91,0.59,0.59,0,*4E
1493877710.77,1140,13.56,73612.0,1.91,0.47,0.59,0,*4F
1493877711.99,1141,13.56,73612.0,1.91,0.47,0.55,0,*42
1493877713.21,1142,13.56,73612.5,1.91,0.55,0.59,0,*4E
1493877714.43,1143,13.56,73614.8,1.91,0.55,0.59,0,*4F
1493877715.64,1144,13.56,73614.0,1.91,0.47,0.47,0,*44
1493877716.86,1145,13.56,73612.3,1.91,0.47,0.55,0,*46
1493877718.08,1146,13.56,73610.0,1.91,0.47,0.47,0,*46
1493877719.29,1147,13.56,73610.3,1.91,0.47,0.55,0,*44
1493877720.51,1148,13.56,73610.3,1.91,0.47,0.47,0,*48
1493877721.73,1149,13.56,73608.0,1.91,0.47,0.47,0,*49
1493877722.94,1150,13.56,73604.5,1.91,0.47,0.47,0,*41
1493877724.18,1151,13.56,73608.5,1.89,0.47,0.47,0,*49
1493877725.4,1152,13.56,73608.0,1.91,0.47,0.47,0,*43
1493877726.61,1153,13.56,73604.8,1.91,0.47,0.47,0,*42
1493877727.85,1154,13.56,73604.3,1.89,0.47,0.47,0,*4C
1493877729.09,1155,13.56,73608.3,1.89,0.47,0.47,0,*4D
1493877730.29,1156,13.56,73608.0,1.89,0.43,0.47,0,*4A
1493877731.5,1157,13.56,73610.8,1.89,0.43,0.47,0,*4B
1493877732.7,1158,13.56,73608.0,1.89,0.43,0.47,0,*44
1493877733.91,1159,13.56,73604.5,1.89,0.43,0.47,0,*45
1493877735.11,1160,13.56,73608.0,1.89,0.43,0.47,0,*4F
1493877736.32,1161,13.56,73608.3,1.89,0.43,0.47,0,*4E
1493877737.55,1162,13.56,73610.5,1.89,0.37,0.47,0,*4E
1493877738.73,1163,13.56,73614.5,1.89,0.43,0.43,0,*48
1493877739.91,1164,13.56,73614.8,1.89,0.43,0.43,0,*4F
1493877741.09,1165,13.56,73618.0,1.89,0.43,0.43,0,*4E
1493877742.27,1166,13.56,73610.0,1.89,0.43,0.43,0,*4D
1493877743.44,1167,13.56,73614.3,1.89,0.43,0.43,0,*4C
1493877744.65,1168,13.56,73610.3,1.89,0.37,0.43,0,*40
1493877745.83,1169,13.56,73616.0,1.89,0.43,0.43,0,*42
1493877747.06,1170,13.56,73614.0,1.85,0.33,0.41,0,*43
1493877748.28,1171,13.56,73610.8,1.85,0.41,0.41,0,*47
1493877749.51,1172,13.56,73612.0,1.85,0.33,0.41,0,*41
1493877750.71,1173,13.56,73610.5,1.83,0.33,0.41,0,*46
1493877751.94,1174,13.56,73612.8,1.85,0.41,0.41,0,*42
1493877753.14,1175,13.56,73608.8,1.83,0.33,0.33,0,*45
1493877754.37,1176,13.56,73610.3,1.85,0.33,0.41,0,*45
1493877755.57,1177,13.56,73612.3,1.83,0.41,0.41,0,*47
1493877756.8,1178,13.56,73608.5,1.85,0.33,0.41,0,*4B
1493877758.03,1179,13.56,73614.0,1.85,0.33,0.41,0,*4A
1493877759.23,1180,13.56,73608.8,1.83,0.41,0.41,0,*4F
1493877760.43,1181,13.56,73610.8,1.83,0.33,0.41,0,*4B
1493877761.64,1182,13.56,73614.3,1.83,0.41,0.41,0,*4D
1493877762.84,1183,13.56,73608.8,1.83,0.33,0.41,0,*49
1493877764.05,1184,13.56,73614.3,1.83,0.29,0.41,0,*45
1493877765.25,1185,13.56,73610.8,1.83,0.41,0.41,0,*4A
1493877766.46,1186,13.56,73612.5,1.83,0.33,0.41,0,*4C
1493877767.69,1187,13.56,73612.8,1.81,0.29,0.37,0,*45
1493877768.92,1188,13.56,73610.5,1.81,0.37,0.37,0,*45
1493877770.15,1189,13.56,73610.8,1.81,0.37,0.37,0,*44
1493877771.38,1190,13.56,73612.3,1.81,0.29,0.37,0,*43
1493877772.61,1191,13.56,73616.3,1.81,0.29,0.37,0,*42
1493877773.84,1192,13.56,73612.0,1.81,0.37,0.37,0,*4E
1493877775.07,1193,13.56,73610.0,1.81,0.37,0.37,0,*4F
1493877776.28,1194,13.56,73608.8,1.79,0.25,0.33,0,*48
1493877777.51,1195,13.56,73608.8,1.81,0.29,0.37,0,*46
1493877778.74,1196,13.56,73602.0,1.81,0.37,0.37,0,*4A
1493877779.95,1197,13.56,73604.3,1.79,0.33,0.33,0,*4C
1493877781.16,1198,13.56,73602.5,1.79,0.25,0.33,0,*44
1493877782.39,1199,13.56,73610.8,1.81,0.37,0.37,0,*45
1493877783.62,1200,13.56,73608.0,1.81,0.37,0.37,0,*46
1493877784.85,1201,13.56,73606.0,1.81,0.37,0.37,0,*47
1493877786.05,1202,13.56,73606.3,1.79,0.33,0.33,0,*43
1493877787.28,1203,13.56,73606.5,1.81,0.37,0.37,0,*45
1493877788.49,1204,13.56,73608.5,1.79,0.33,0.37,0,*41
1493877789.7,1205,13.56,73610.3,1.79,0.33,0.37,0,*40
1493877790.91,1206,13.56,73612.0,1.79,0.33,0.37,0,*43
1493877792.12,1207,13.56,73606.0,1.79,0.33,0.37,0,*42
1493877793.33,1208,13.56,73608.8,1.79,0.33,0.37,0,*4D
1493877794.54,1209,13.56,73604.8,1.79,0.33,0.37,0,*4C
1493877795.75,1210,13.56,73606.3,1.79,0.37,0.37,0,*40
1493877796.98,1211,13.56,73608.8,1.77,0.37,0.37,0,*4F
1493877798.19,1212,13.56,73606.5,1.79,0.37,0.37,0,*42
1493877799.43,1213,13.56,73608.3,1.81,0.41,0.47,0,*42
1493877800.64,1214,13.56,73606.5,1.79,0.37,0.37,0,*44
1493877801.82,1215,13.56,73606.5,1.79,0.33,0.43,0,*42
1493877803.01,1216,13.56,73606.0,1.79,0.33,0.43,0,*41
1493877804.22,1217,13.56,73606.8,1.79,0.33,0.37,0,*43
1493877805.41,1218,13.56,73608.5,1.79,0.37,0.43,0,*4B
1493877806.62,1219,13.56,73608.0,1.79,0.37,0.37,0,*49
1493877807.83,1220,13.56,73608.3,1.79,0.37,0.37,0,*43
1493877809.04,1221,13.56,73608.3,1.77,0.37,0.43,0,*4F
1493877810.25,1222,13.56,73606.3,1.77,0.37,0.43,0,*4C
1493877811.44,1223,13.56,73606.5,1.79,0.37,0.43,0,*43
1493877812.62,1224,13.56,73604.5,1.79,0.43,0.37,0,*44
1493877813.84,1225,13.56,73608.3,1.77,0.37,0.43,0,*4B
1493877815.02,1226,13.56,73608.5,1.79,0.37,0.43,0,*46
1493877816.26,1227,13.56,73608.8,1.77,0.37,0.37,0,*4A
1493877817.47,1228,13.56,73610.0,1.77,0.37,0.43,0,*46
1493877818.68,1229,13.56,73608.5,1.77,0.43,0.41,0,*46
1493877819.86,1230,13.56,73606.5,1.79,0.37,0.43,0,*41
1493877821.1,1231,13.56,73608.3,1.81,0.41,0.47,0,*42
1493877822.33,1232,13.56,73608.0,1.77,0.37,0.37,0,*4E
1493877823.52,1233,13.56,73606.3,1.79,0.37,0.43,0,*42
1493877824.68,1234,13.56,73612.0,1.79,0.43,0.43,0,*46
1493877825.92,1235,13.5,73608.0,1.77,0.37,0.37,0,*49
1493877827.1,1236,13.56,73610.3,1.77,0.43,0.43,0,*4A
1493877828.29,1237,13.56,73612.5,1.79,0.37,0.43,0,*46
1493877829.5,1238,13.56,73614.8,1.77,0.37,0.43,0,*47
1493877830.73,1239,13.56,73614.3,1.81,0.41,0.47,0,*4A
1493877831.95,1240,13.56,73618.3,1.77,0.47,0.43,0,*4F
1493877833.19,1241,13.56,73612.3,1.81,0.41,0.47,0,*45
1493877834.4,1242,13.56,73612.3,1.77,0.43,0.47,0,*4D
1493877835.61,1243,13.56,73616.0,1.77,0.43,0.55,0,*4F
1493877836.82,1244,13.56,73608.0,1.77,0.43,0.47,0,*4B
1493877838.03,1245,13.56,73610.5,1.77,0.43,0.47,0,*4A
1493877839.24,1246,13.56,73610.5,1.77,0.43,0.47,0,*49
1493877840.45,1247,13.56,73610.8,1.77,0.43,0.47,0,*48
1493877841.69,1248,13.56,73612.5,1.77,0.37,0.47,0,*44
1493877842.91,1249,13.56,73612.8,1.77,0.43,0.47,0,*46
1493877844.09,1250,13.56,73614.3,1.75,0.41,0.43,0,*4A
1493877845.31,1251,13.56,73618.0,1.77,0.43,0.55,0,*4C
1493877846.52,1252,13.56,73618.8,1.77,0.47,0.43,0,*4C
1493877847.73,1253,13.56,73618.5,1.77,0.43,0.47,0,*4D
1493877848.98,1254,13.56,73618.0,1.77,0.47,0.55,0,*4D
1493877850.22,1255,13.56,73616.8,1.77,0.47,0.47,0,*4F
1493877851.43,1256,13.56,73618.0,1.77,0.43,0.47,0,*48
1493877852.64,1257,13.56,73616.3,1.77,0.43,0.47,0,*49
1493877853.86,1258,13.56,73620.3,1.77,0.43,0.47,0,*46
1493877855.07,1259,13.56,73618.0,1.77,0.43,0.55,0,*44
1493877856.28,1260,13.56,73620.3,1.77,0.43,0.55,0,*4E
1493877857.49,1261,13.56,73620.0,1.77,0.43,0.55,0,*4F
1493877858.74,1262,13.56,73616.3,1.77,0.55,0.47,0,*48
1493877859.96,1263,13.56,73618.5,1.79,0.47,0.55,0,*47
1493877861.18,1264,13.56,73622.3,1.79,0.47,0.55,0,*40
1493877862.4,1265,13.56,73620.8,1.79,0.55,0.55,0,*42
1493877863.62,1266,13.56,73618.8,1.79,0.55,0.59,0,*4D
1493877864.84,1267,13.56,73614.0,1.79,0.47,0.55,0,*43
1493877866.05,1268,13.56,73614.0,1.79,0.47,0.55,0,*4C
1493877867.27,1269,13.56,73610.3,1.79,0.47,0.55,0,*4D
1493877868.49,1270,13.56,73610.8,1.79,0.47,0.59,0,*49
1493877869.71,1271,13.56,73608.0,1.79,0.47,0.47,0,*47
1493877870.93,1272,13.56,73612.8,1.79,0.55,0.55,0,*44
1493877872.17,1273,13.56,73610.8,1.77,0.47,0.55,0,*48
1493877873.39,1274,13.56,73612.3,1.79,0.47,0.55,0,*41
1493877874.61,1275,13.56,73612.0,1.79,0.47,0.55,0,*40
1493877875.83,1276,13.56,73610.3,1.79,0.47,0.59,0,*4F
1493877877.07,1277,13.56,73608.3,1.77,0.55,0.59,0,*43
1493877878.29,1278,13.56,73610.5,1.79,0.55,0.67,0,*4F
1493877879.51,1279,13.56,73608.8,1.79,0.55,0.59,0,*43
1493877880.73,1280,13.56,73610.8,1.79,0.55,0.55,0,*49
1493877881.96,1281,13.56,73610.3,1.81,0.51,0.63,0,*4E
1493877883.19,1282,13.56,73606.5,1.81,0.59,0.63,0,*45
1493877884.41,1283,13.56,73606.0,1.79,0.47,0.59,0,*45
1493877885.64,1284,13.56,73610.5,1.81,0.51,0.71,0,*48
1493877886.88,1285,13.56,73604.5,1.81,0.51,0.51,0,*4B
1493877888.11,1286,13.56,73608.3,1.81,0.59,0.63,0,*41
1493877889.33,1287,13.56,73608.3,1.79,0.47,0.59,0,*41
1493877890.56,1288,13.56,73612.5,1.81,0.59,0.59,0,*46
1493877891.78,1289,13.56,73608.8,1.79,0.47,0.55,0,*43
1493877893.0,1290,13.56,73614.0,1.79,0.55,0.55,0,*48
1493877894.24,1291,13.56,73614.3,1.81,0.51,0.59,0,*46
1493877895.47,1292,13.56,73614.3,1.81,0.59,0.59,0,*4D
1493877896.71,1293,13.56,73618.5,1.81,0.51,0.59,0,*44
1493877897.94,1294,13.56,73616.3,1.81,0.51,0.63,0,*4A
1493877899.17,1295,13.56,73608.8,1.81,0.59,0.63,0,*43
1493877900.41,1296,13.56,73608.8,1.81,0.51,0.63,0,*48
1493877901.64,1297,13.56,73614.8,1.81,0.51,0.63,0,*49
1493877902.87,1298,13.56,73618.3,1.81,0.51,0.63,0,*46
1493877904.11,1299,13.56,73616.5,1.81,0.59,0.59,0,*46
1493877905.34,1300,13.56,73616.5,1.81,0.51,0.59,0,*4F
1493877906.56,1301,13.56,73616.0,1.79,0.51,0.55,0,*45
1493877907.79,1302,13.56,73614.8,1.81,0.51,0.51,0,*45
1493877909.02,1303,13.56,73610.8,1.79,0.55,0.55,0,*43
1493877910.25,1304,13.56,73614.3,1.81,0.51,0.59,0,*4B
1493877911.49,1305,13.56,73612.0,1.81,0.51,0.59,0,*4A
1493877912.72,1306,13.56,73616.3,1.81,0.59,0.63,0,*48
1493877913.95,1307,13.56,73612.0,1.81,0.59,0.63,0,*49
1493877915.16,1308,13.56,73614.3,1.79,0.59,0.67,0,*45
1493877916.39,1309,13.56,73614.3,1.81,0.63,0.63,0,*4E
1493877917.6,1310,13.56,73620.8,1.83,0.55,0.67,0,*45
1493877918.8,1311,13.56,73626.8,1.83,0.63,0.67,0,*41
1493877920.0,1312,13.56,73624.0,1.83,0.67,0.67,0,*46
1493877921.2,1313,13.56,73622.5,1.83,0.67,0.67,0,*47
1493877922.43,1314,13.56,73622.3,1.85,0.63,0.75,0,*41
1493877923.64,1315,13.56,73622.0,1.83,0.63,0.75,0,*46
1493877924.85,1316,13.56,73616.0,1.83,0.63,0.75,0,*45
1493877926.06,1317,13.56,73618.5,1.83,0.67,0.75,0,*40
1493877927.27,1318,13.56,73622.3,1.83,0.63,0.75,0,*4B
1493877928.47,1319,13.56,73622.8,1.83,0.67,0.75,0,*4E
1493877929.68,1320,13.56,73620.5,1.83,0.75,0.75,0,*47
1493877930.91,1321,13.56,73618.5,1.85,0.63,0.75,0,*47
1493877932.14,1322,13.56,73620.3,1.85,0.63,0.67,0,*47
1493877933.35,1323,13.56,73620.0,1.83,0.63,0.75,0,*43
1493877934.58,1324,13.56,73620.5,1.85,0.75,0.75,0,*45
1493877935.81,1325,13.56,73624.0,1.85,0.75,0.79,0,*48
1493877937.04,1326,13.56,73624.3,1.85,0.67,0.75,0,*44
1493877938.27,1327,13.56,73622.5,1.85,0.75,0.67,0,*45
1493877939.5,1328,13.56,73624.3,1.85,0.75,0.75,0,*49
1493877940.74,1329,13.56,73622.8,1.85,0.75,0.75,0,*48
1493877941.97,1330,13.56,73622.5,1.89,0.71,0.83,0,*41
1493877943.21,1331,13.56,73624.3,1.89,0.79,0.83,0,*48
1493877944.45,1332,13.56,73620.8,1.89,0.79,0.71,0,*46
1493877945.69,1333,13.56,73614.5,1.89,0.71,0.83,0,*42
1493877946.92,1334,13.56,73614.3,1.89,0.71,0.83,0,*45
1493877948.14,1335,13.56,73614.5,1.91,0.79,0.83,0,*45
1493877949.35,1336,13.56,73612.0,1.91,0.71,0.79,0,*4B
1493877950.59,1337,13.56,73614.5,1.89,0.79,0.79,0,*4B
1493877951.82,1338,13.56,73616.8,1.89,0.71,0.71,0,*44
1493877953.03,1339,13.56,73616.0,1.91,0.71,0.71,0,*4C
1493877954.27,1340,13.56,73622.0,1.89,0.71,0.71,0,*4B
1493877955.48,1341,13.56,73622.5,1.91,0.71,0.79,0,*4B
1493877956.69,1342,13.56,73622.5,1.91,0.71,0.71,0,*40
1493877957.9,1343,13.56,73618.8,1.91,0.67,0.71,0,*46
1493877959.11,1344,13.56,73622.0,1.91,0.67,0.79,0,*49
1493877960.31,1345,13.56,73620.0,1.91,0.67,0.79,0,*48
1493877961.52,1346,13.56,73618.8,1.91,0.67,0.79,0,*4B
1493877962.72,1347,13.56,73618.5,1.91,0.67,0.79,0,*4A
1493877963.93,1348,13.56,73620.5,1.91,0.59,0.71,0,*40
1493877965.16,1349,13.56,73622.8,1.89,0.67,0.71,0,*45
1493877966.37,1350,13.56,73622.0,1.91,0.59,0.71,0,*49
1493877967.58,1351,13.56,73624.3,1.91,0.59,0.67,0,*4F
1493877968.79,1352,13.56,73626.3,1.95,0.71,0.71,0,*45
1493877970.02,1353,13.56,73626.8,1.93,0.63,0.71,0,*41
1493877971.25,1354,13.56,73626.8,1.93,0.63,0.71,0,*46
1493877972.47,1355,13.56,73630.8,1.95,0.71,0.63,0,*41
1493877973.7,1356,13.56,73628.5,1.93,0.59,0.63,0,*4E
1493877974.93,1357,13.56,73628.5,1.93,0.51,0.63,0,*47
1493877976.17,1358,13.56,73628.5,1.93,0.51,0.63,0,*48
1493877977.41,1359,13.56,73628.0,1.93,0.51,0.59,0,*40
1493877978.62,1360,13.56,73626.3,1.95,0.59,0.59,0,*44
1493877979.86,1361,13.56,73630.3,1.93,0.59,0.51,0,*4B
1493877981.1,1362,13.56,73630.8,1.93,0.51,0.59,0,*48
1493877982.34,1363,13.56,73630.3,1.93,0.51,0.51,0,*41
1493877983.55,1364,13.56,73630.8,1.91,0.47,0.47,0,*44
1493877984.79,1365,13.56,73628.8,1.93,0.51,0.51,0,*47
1493877986.03,1366,13.56,73626.0,1.93,0.51,0.51,0,*44
1493877987.25,1367,13.56,73624.3,1.91,0.47,0.47,0,*47
1493877988.47,1368,13.56,73624.8,1.91,0.47,0.47,0,*48
1493877989.68,1369,13.56,73628.5,1.91,0.47,0.47,0,*49
1493877990.9,1370,13.56,73626.0,1.91,0.47,0.55,0,*42
1493877992.12,1371,13.56,73630.0,1.91,0.47,0.47,0,*40
1493877993.33,1372,13.56,73626.5,1.91,0.47,0.55,0,*40
1493877994.55,1373,13.56,73624.5,1.91,0.47,0.47,0,*42
1493877995.73,1374,13.56,73622.8,1.91,0.43,0.47,0,*41
1493877996.94,1375,13.56,73628.3,1.89,0.43,0.47,0,*49
1493877998.12,1376,13.56,73626.3,1.91,0.43,0.47,0,*43
1493877999.33,1377,13.56,73620.8,1.89,0.43,0.47,0,*4B
1493878000.51,1378,13.56,73624.0,1.91,0.43,0.47,0,*4D
1493878001.72,1379,13.56,73618.8,1.91,0.37,0.55,0,*4C
1493878002.91,1380,13.56,73624.8,1.91,0.43,0.47,0,*4A
1493878004.11,1381,13.56,73624.0,1.89,0.43,0.47,0,*42
1493878005.3,1382,13.56,73624.0,1.91,0.43,0.47,0,*48
1493878006.48,1383,13.56,73622.0,1.91,0.43,0.47,0,*49
1493878007.69,1384,13.56,73624.5,1.89,0.43,0.47,0,*47
1493878008.89,1385,13.56,73622.5,1.89,0.43,0.47,0,*46
1493878010.08,1386,13.56,73624.0,1.91,0.43,0.47,0,*4C
1493878011.28,1387,13.56,73622.8,1.89,0.43,0.47,0,*44
1493878012.46,1388,13.56,73620.0,1.89,0.43,0.43,0,*4F
1493878013.64,1389,13.56,73620.8,1.89,0.43,0.43,0,*4E
1493878014.85,1390,13.56,73622.0,1.89,0.37,0.43,0,*45
1493878016.02,1391,13.56,73622.0,1.89,0.43,0.43,0,*47
1493878017.23,1392,13.56,73616.8,1.89,0.37,0.43,0,*47
1493878018.44,1393,13.56,73622.8,1.89,0.37,0.43,0,*46
1493878019.64,1394,13.56,73622.5,1.89,0.37,0.43,0,*41
1493878020.85,1395,13.56,73624.3,1.89,0.37,0.43,0,*40
1493878022.06,1396,13.56,73620.5,1.89,0.37,0.43,0,*43
1493878023.26,1397,13.56,73620.0,1.89,0.37,0.43,0,*42
1493878024.49,1398,13.56,73620.3,1.85,0.41,0.33,0,*47
1493878025.72,1399,13.56,73620.8,1.85,0.33,0.41,0,*46
1493878026.94,1400,13.56,73620.0,1.85,0.33,0.33,0,*44
1493878028.15,1401,13.56,73618.5,1.83,0.41,0.41,0,*43
1493878029.37,1402,13.56,73620.0,1.85,0.33,0.41,0,*43
1493878030.58,1403,13.56,73618.3,1.83,0.41,0.41,0,*41
1493878031.8,1404,13.56,73618.3,1.85,0.33,0.41,0,*45
1493878033.03,1405,13.56,73620.3,1.85,0.41,0.41,0,*41
1493878034.24,1406,13.56,73616.0,1.83,0.41,0.41,0,*44
1493878035.46,1407,13.56,73616.8,1.85,0.33,0.41,0,*46
1493878036.67,1408,13.56,73618.3,1.83,0.33,0.41,0,*4F
1493878037.89,1409,13.56,73616.0,1.85,0.33,0.41,0,*48
1493878039.09,1410,13.56,73612.0,1.83,0.33,0.33,0,*43
1493878040.3,1411,13.56,73618.8,1.83,0.33,0.41,0,*47
1493878041.5,1412,13.56,73624.3,1.83,0.33,0.33,0,*41
1493878042.72,1413,13.56,73618.5,1.85,0.33,0.41,0,*43
1493878043.93,1414,13.56,73618.8,1.83,0.41,0.41,0,*47
1493878045.16,1415,13.56,73618.3,1.81,0.29,0.37,0,*4B
1493878046.39,1416,13.56,73620.3,1.81,0.29,0.37,0,*48
1493878047.62,1417,13.56,73620.3,1.81,0.37,0.37,0,*46
1493878048.85,1418,13.56,73618.0,1.81,0.37,0.37,0,*49
1493878050.08,1419,13.56,73622.0,1.81,0.29,0.37,0,*47
1493878051.32,1420,13.56,73620.8,1.81,0.29,0.37,0,*4D
1493878052.55,1421,13.56,73618.0,1.81,0.37,0.37,0,*43
1493878053.78,1422,13.56,73618.8,1.81,0.29,0.37,0,*4F
1493878054.99,1423,13.56,73618.8,1.79,0.25,0.33,0,*41
1493878056.22,1424,13.56,73622.3,1.81,0.29,0.37,0,*49
1493878057.43,1425,13.56,73618.5,1.79,0.25,0.33,0,*47
1493878058.66,1426,13.56,73618.5,1.81,0.37,0.37,0,*44
1493878059.89,1427,13.56,73620.8,1.81,0.37,0.37,0,*45
1493878061.12,1428,13.56,73622.8,1.81,0.37,0.37,0,*4A
1493878062.35,1429,13.56,73620.0,1.81,0.37,0.37,0,*4B
1493878063.55,1430,13.56,73622.8,1.79,0.33,0.33,0,*44
1493878064.79,1431,13.56,73626.0,1.81,0.29,0.37,0,*4D
1493878066.01,1432,13.56,73630.8,1.81,0.37,0.33,0,*45
1493878067.24,1433,13.56,73624.5,1.81,0.37,0.37,0,*40
1493878068.47,1434,13.56,73620.5,1.81,0.29,0.41,0,*49
1493878069.7,1435,13.56,73628.0,1.81,0.37,0.41,0,*47
1493878070.92,1436,13.56,73624.5,1.81,0.37,0.41,0,*44
1493878072.14,1437,13.56,73624.8,1.79,0.25,0.37,0,*40
1493878073.35,1438,13.56,73624.0,1.79,0.33,0.37,0,*48
1493878074.55,1439,13.56,73626.8,1.79,0.33,0.37,0,*49
1493878075.74,1440,13.56,73626.3,1.79,0.33,0.43,0,*44
1493878076.95,1441,13.56,73626.3,1.79,0.33,0.37,0,*46
1493878078.16,1442,13.56,73628.3,1.79,0.33,0.37,0,*45
1493878079.37,1443,13.56,73628.0,1.79,0.33,0.37,0,*44
1493878080.58,1444,13.56,73630.5,1.79,0.33,0.37,0,*43
1493878081.79,1445,13.56,73624.0,1.79,0.37,0.37,0,*46
1493878083.0,1446,13.56,73630.5,1.79,0.33,0.37,0,*41
1493878084.21,1447,13.56,73628.8,1.79,0.33,0.37,0,*40
1493878085.42,1448,13.56,73626.0,1.79,0.25,0.37,0,*48
1493878086.63,1449,13.56,73622.3,1.79,0.33,0.37,0,*4E
1493878087.84,1450,13.56,73622.0,1.79,0.37,0.37,0,*42
1493878089.03,1451,13.56,73618.5,1.79,0.37,0.43,0,*40
1493878090.24,1452,13.56,73614.5,1.79,0.37,0.37,0,*40
1493878091.45,1453,13.56,73616.5,1.79,0.37,0.37,0,*41
1493878092.66,1454,13.56,73620.5,1.79,0.37,0.37,0,*46
1493878093.87,1455,13.56,73622.8,1.79,0.33,0.37,0,*43
1493878095.08,1456,13.56,73618.3,1.79,0.33,0.37,0,*40
1493878096.28,1457,13.56,73620.8,1.79,0.33,0.37,0,*41
1493878097.49,1458,13.56,73616.3,1.79,0.33,0.37,0,*4E
1493878098.7,1459,13.56,73618.5,1.79,0.33,0.37,0,*4F
1493878099.94,1460,13.56,73620.8,1.81,0.41,0.47,0,*40
1493878101.15,1461,13.56,73618.3,1.79,0.37,0.37,0,*40
1493878102.38,1462,13.56,73618.5,1.77,0.37,0.37,0,*4D
1493878103.59,1463,13.56,73616.5,1.79,0.37,0.37,0,*42
1493878104.78,1464,13.56,73616.5,1.79,0.37,0.43,0,*46
1493878106.01,1465,13.56,73616.5,1.81,0.47,0.41,0,*45
1493878107.22,1466,13.56,73616.5,1.75,0.33,0.33,0,*4B
1493878108.4,1467,13.56,73620.5,1.79,0.43,0.37,0,*45
1493878109.61,1468,13.56,73618.3,1.79,0.37,0.37,0,*49
1493878110.85,1469,13.56,73622.8,1.77,0.37,0.37,0,*46
1493878112.08,1470,13.56,73616.3,1.77,0.37,0.37,0,*4E
1493878113.32,1471,13.56,73620.8,1.77,0.37,0.37,0,*4F
1493878114.53,1472,13.56,73620.0,1.77,0.37,0.43,0,*4F
1493878115.74,1473,13.56,73618.3,1.75,0.33,0.33,0,*4F
1493878116.97,1474,13.56,73618.8,1.77,0.37,0.37,0,*4A
1493878118.21,1475,13.56,73618.8,1.77,0.37,0.37,0,*4B
1493878119.42,1476,13.56,73618.5,1.79,0.37,0.37,0,*46
1493878120.65,1477,13.56,73624.3,1.77,0.37,0.37,0,*49
1493878121.87,1478,13.56,73626.5,1.77,0.37,0.43,0,*45
1493878123.07,1479,13.56,73620.8,1.75,0.33,0.41,0,*40
1493878124.29,1480,13.56,73622.5,1.77,0.37,0.43,0,*42
1493878125.52,1481,13.56,73624.0,1.77,0.37,0.37,0,*40
1493878126.76,1482,13.56,73620.8,1.77,0.37,0.37,0,*43
1493878127.96,1483,13.56,73622.0,1.75,0.33,0.41,0,*45
1493878129.2,1484,13.56,73626.0,1.77,0.33,0.37,0,*41
1493878130.43,1485,13.56,73624.0,1.77,0.33,0.33,0,*44
1493878131.67,1486,13.56,73626.3,1.77,0.33,0.37,0,*43
1493878132.87,1487,13.56,73624.5,1.75,0.33,0.33,0,*44
1493878134.08,1488,13.56,73622.3,1.75,0.33,0.41,0,*4E
1493878135.28,1489,13.56,73620.3,1.75,0.41,0.41,0,*4A
1493878136.49,1490,13.56,73624.0,1.75,0.33,0.41,0,*47
1493878137.7,1491,13.56,73624.8,1.75,0.33,0.33,0,*43
1493878138.88,1492,13.56,73620.8,1.77,0.43,0.43,0,*42
1493878140.08,1493,13.56,73622.8,1.75,0.33,0.33,0,*41
1493878141.29,1494,13.56,73620.5,1.75,0.33,0.33,0,*46